North Platte, NE

10:48 AM CDT on October 18, 2017 (GMT -0500)
North Platte Regional-Bird

Weather History for KLBF - February, 2014

Change the Weather History Date:

Monday, February 3, 2014

  Actual Average Record
Temperature  
Mean Temperature 11 °F 26 °F  
Max Temperature 24 °F 40 °F 72 °F (1962)
Min Temperature -3 °F 13 °F -23 °F (1883)
Degree Days  
Heating Degree Days 54 39  
Month to date heating degree days 168 117  
Since 1 July heating degree days 4116 4137  
Cooling Degree Days 0 0  
Month to date cooling degree days 0 0  
Year to date cooling degree days 0 0  
Moisture  
Dew Point 8 °F    
Average Humidity 77    
Maximum Humidity 91    
Minimum Humidity 62    
Precipitation  
Precipitation T in 0.02 in 0.87 in (2012)
Month to date precipitation T 0.04  
Year to date precipitation 0.32 0.38  
Snow  
Snow T in 0.10 in 8.50 in (1955)
Month to date snowfall T 0.5  
Since 1 July snowfall 10.8 16.1  
Snow Depth 2.00 in    
Sea Level Pressure  
Sea Level Pressure 30.16 in    
Wind  
Wind Speed 4 mph (SE)    
Max Wind Speed 14 mph    
Max Gust Speed 15 mph    
Visibility 9 miles    
Events      
T = Trace of Precipitation, MM = Missing Value Source: NWS Daily Summary

Daily Weather History Graph

Daily Weather History Graph

Search for Another Location

Airport or City:

Trip Planner

Search our weather history database for the weather conditions in past years. The results will help you decide how hot, cold, wet, or windy it might be!

Date:

Astronomy

Feb. 03, 2014 Rise Set
Actual Time 7:51 AM CST 6:02 PM CST
Civil Twilight 7:22 AM CST 6:31 PM CST
Nautical Twilight 6:49 AM CST 7:04 PM CST
Astronomical Twilight 6:17 AM CST 7:36 PM CST
Moon 9:52 AM CST (2/3) 10:57 PM CST (2/3)
Length of Visible Light 11h 08m
Length of Day
10h 10m
Waxing Crescent, 20% of the Moon is Illuminated
Feb 3
Waxing Crescent
Feb 6
First Quarter
Feb 14
Full
Feb 22
Last Quarter
Mar 1
New

Hourly Weather History & Observations

Time (CST) Temp. Windchill Dew Point Humidity Pressure Visibility Wind Dir Wind Speed Gust Speed Precip Events Conditions
12:53 AM -0.0 °F - -2.9 °F 88% 30.25 in 7.0 mi Calm Calm - N/A   Clear
1:53 AM -0.0 °F - -4.0 °F 83% 30.22 in 9.0 mi Calm Calm - N/A   Clear
2:53 AM -2.9 °F -11.2 °F -7.1 °F 82% 30.23 in 10.0 mi NNW 3.5 mph - N/A   Clear
3:53 AM -0.9 °F - -5.1 °F 83% 30.21 in 10.0 mi Calm Calm - N/A   Clear
4:00 AM -2.2 °F - -5.8 °F 85% 30.06 in 10.0 mi Calm Calm - N/A   Scattered Clouds
4:10 AM -2.2 °F -10.4 °F -5.8 °F 85% 30.06 in 10.0 mi West 3.5 mph - N/A   Mostly Cloudy
4:39 AM -2.2 °F - -7.6 °F 78% 30.05 in 9.0 mi Calm Calm - N/A   Scattered Clouds
4:53 AM -2.9 °F - -7.1 °F 82% 30.21 in 5.0 mi Calm Calm - N/A   Mostly Cloudy
5:53 AM 5.0 °F - 1.9 °F 87% 30.19 in 8.0 mi Calm Calm - N/A   Overcast
6:53 AM 7.0 °F - 3.9 °F 87% 30.18 in 8.0 mi Calm Calm - N/A   Overcast
7:53 AM 10.0 °F 3.6 °F 6.1 °F 84% 30.19 in 8.0 mi East 3.5 mph - N/A   Overcast
8:53 AM 12.0 °F 1.5 °F 8.1 °F 84% 30.20 in 6.0 mi ESE 6.9 mph - N/A   Overcast
9:53 AM 15.1 °F 4.2 °F 12.0 °F 88% 30.20 in 7.0 mi East 8.1 mph - N/A   Overcast
10:53 AM 17.1 °F 3.6 °F 12.0 °F 81% 30.20 in 10.0 mi ESE 12.7 mph - N/A   Overcast
11:53 AM 19.9 °F 7.3 °F 14.0 °F 78% 30.17 in 10.0 mi ESE 12.7 mph - N/A   Overcast
12:53 PM 21.9 °F 11.7 °F 14.0 °F 72% 30.13 in 10.0 mi SE 9.2 mph - N/A   Overcast
1:44 PM 24.8 °F 17.9 °F 14.0 °F 64% 29.98 in 10.0 mi SSE 5.8 mph - N/A   Overcast
1:53 PM 24.1 °F 16.0 °F 14.0 °F 65% 30.12 in 10.0 mi SSE 6.9 mph - N/A   Overcast
2:53 PM 23.0 °F 14.7 °F 14.0 °F 68% 30.14 in 10.0 mi SW 6.9 mph - N/A   Overcast
3:53 PM 21.9 °F 13.4 °F 12.9 °F 68% 30.13 in 10.0 mi South 6.9 mph - N/A   Overcast
4:53 PM 23.0 °F 15.8 °F 15.1 °F 72% 30.14 in 10.0 mi SSE 5.8 mph - N/A   Overcast
5:53 PM 21.9 °F 14.5 °F 14.0 °F 72% 30.14 in 10.0 mi SSE 5.8 mph - N/A   Overcast
6:53 PM 21.9 °F 17.2 °F 14.0 °F 72% 30.14 in 10.0 mi SE 3.5 mph - N/A   Overcast
7:53 PM 21.9 °F 17.2 °F 15.1 °F 75% 30.17 in 10.0 mi SE 3.5 mph - N/A   Overcast
8:53 PM 21.0 °F 16.2 °F 15.1 °F 78% 30.18 in 10.0 mi East 3.5 mph - N/A   Overcast
9:53 PM 21.0 °F 16.2 °F 15.1 °F 78% 30.19 in 10.0 mi NE 3.5 mph - N/A   Overcast
10:53 PM 21.0 °F - 16.0 °F 81% 30.21 in 10.0 mi Calm Calm - N/A   Overcast
11:53 PM 21.0 °F 16.2 °F 16.0 °F 81% 30.19 in 10.0 mi East 3.5 mph - N/A   Overcast